TimeCDT,TemperatureF,Dew PointF,Humidity,Sea Level PressureIn,VisibilityMPH,Wind Direction,Wind SpeedMPH,Gust SpeedMPH,PrecipitationIn,Events,Conditions,WindDirDegrees,DateUTC
12:15 AM,50.0,42.8,76,30.31,10.0,North,4.6,-,N/A,,Mostly Cloudy,360,2013-05-26 05:15:00
12:35 AM,48.2,42.8,82,30.30,10.0,North,5.8,-,N/A,,Scattered Clouds,360,2013-05-26 05:35:00
12:55 AM,48.2,42.8,82,30.30,10.0,Calm,Calm,-,N/A,,Overcast,0,2013-05-26 05:55:00
1:15 AM,46.4,42.8,87,30.29,10.0,NNE,6.9,-,N/A,,Mostly Cloudy,20,2013-05-26 06:15:00
1:35 AM,46.4,41.0,81,30.28,10.0,NNE,5.8,-,N/A,,Scattered Clouds,20,2013-05-26 06:35:00
1:55 AM,46.4,41.0,81,30.27,10.0,NNE,3.5,-,N/A,,Clear,20,2013-05-26 06:55:00
2:15 AM,44.6,41.0,87,30.27,10.0,NE,3.5,-,N/A,,Clear,40,2013-05-26 07:15:00
2:35 AM,44.6,41.0,87,30.25,10.0,NE,4.6,-,N/A,,Clear,40,2013-05-26 07:35:00
2:55 AM,42.8,41.0,93,30.25,10.0,NE,5.8,-,N/A,,Clear,40,2013-05-26 07:55:00
3:15 AM,42.8,41.0,93,30.24,10.0,NE,5.8,-,N/A,,Clear,50,2013-05-26 08:15:00
3:35 AM,42.8,41.0,93,30.25,10.0,NNE,6.9,-,N/A,,Clear,30,2013-05-26 08:35:00
3:55 AM,44.6,41.0,87,30.26,10.0,Calm,Calm,-,N/A,,Clear,0,2013-05-26 08:55:00
4:15 AM,42.8,41.0,93,30.26,10.0,East,3.5,-,N/A,,Clear,80,2013-05-26 09:15:00
4:35 AM,42.8,41.0,93,30.27,10.0,East,3.5,-,N/A,,Clear,90,2013-05-26 09:35:00
4:55 AM,42.8,41.0,93,30.27,10.0,Calm,Calm,-,N/A,,Clear,0,2013-05-26 09:55:00
5:15 AM,44.6,41.0,87,30.28,10.0,Calm,Calm,-,N/A,,Clear,0,2013-05-26 10:15:00
5:35 AM,44.6,41.0,87,30.28,10.0,Calm,Calm,-,N/A,,Scattered Clouds,0,2013-05-26 10:35:00
5:55 AM,44.6,42.8,93,30.27,10.0,Calm,Calm,-,N/A,,Clear,0,2013-05-26 10:55:00
6:15 AM,46.4,42.8,87,30.27,10.0,East,3.5,-,N/A,,Clear,90,2013-05-26 11:15:00
6:35 AM,46.4,42.8,87,30.28,10.0,East,3.5,-,N/A,,Clear,80,2013-05-26 11:35:00
6:55 AM,50.0,44.6,82,30.29,10.0,ESE,3.5,-,N/A,,Clear,110,2013-05-26 11:55:00
7:15 AM,50.0,44.6,82,30.29,10.0,ESE,4.6,-,N/A,,Clear,110,2013-05-26 12:15:00
7:35 AM,51.8,44.6,76,30.29,10.0,ESE,3.5,-,N/A,,Clear,110,2013-05-26 12:35:00
7:55 AM,53.6,44.6,72,30.30,10.0,ESE,5.8,-,N/A,,Clear,110,2013-05-26 12:55:00
8:15 AM,53.6,46.4,77,30.31,10.0,ESE,5.8,-,N/A,,Clear,120,2013-05-26 13:15:00
8:35 AM,55.4,46.4,72,30.31,10.0,SE,5.8,-,N/A,,Clear,140,2013-05-26 13:35:00
8:55 AM,55.4,48.2,77,30.30,10.0,ESE,5.8,-,N/A,,Clear,120,2013-05-26 13:55:00
9:15 AM,59.0,46.4,63,30.30,10.0,SSE,6.9,-,N/A,,Clear,150,2013-05-26 14:15:00
9:35 AM,59.0,46.4,63,30.29,10.0,ESE,5.8,-,N/A,,Clear,120,2013-05-26 14:35:00
9:55 AM,60.8,44.6,55,30.29,10.0,ESE,8.1,-,N/A,,Clear,120,2013-05-26 14:55:00
10:15 AM,62.6,41.0,45,30.29,10.0,SE,6.9,-,N/A,,Clear,140,2013-05-26 15:15:00
10:35 AM,62.6,37.4,39,30.29,10.0,SE,8.1,-,N/A,,Clear,130,2013-05-26 15:35:00
10:55 AM,64.4,39.2,40,30.29,10.0,SSE,10.4,-,N/A,,Clear,150,2013-05-26 15:55:00
11:15 AM,64.4,39.2,40,30.29,10.0,ESE,9.2,-,N/A,,Scattered Clouds,120,2013-05-26 16:15:00
11:35 AM,64.4,41.0,42,30.28,10.0,SSE,5.8,-,N/A,,Scattered Clouds,160,2013-05-26 16:35:00
11:55 AM,66.2,41.0,40,30.28,10.0,SE,9.2,-,N/A,,Clear,130,2013-05-26 16:55:00
12:15 PM,68.0,42.8,40,30.28,10.0,South,9.2,-,N/A,,Scattered Clouds,180,2013-05-26 17:15:00
12:35 PM,66.2,41.0,40,30.27,10.0,SE,6.9,-,N/A,,Scattered Clouds,140,2013-05-26 17:35:00
12:55 PM,66.2,41.0,40,30.26,10.0,SSW,8.1,-,N/A,,Scattered Clouds,200,2013-05-26 17:55:00
1:15 PM,64.4,41.0,42,30.25,10.0,South,9.2,-,N/A,,Mostly Cloudy,170,2013-05-26 18:15:00
1:35 PM,64.4,42.8,45,30.24,10.0,SSE,9.2,-,N/A,,Overcast,160,2013-05-26 18:35:00
1:55 PM,64.4,44.6,49,30.24,10.0,South,9.2,-,N/A,Rain,Light Rain,170,2013-05-26 18:55:00
2:15 PM,60.8,48.2,63,30.24,10.0,South,10.4,-,N/A,Rain,Light Rain,170,2013-05-26 19:15:00
2:35 PM,60.8,50.0,68,30.24,10.0,SSE,10.4,-,N/A,,Light Drizzle,160,2013-05-26 19:35:00
2:55 PM,60.8,50.0,68,30.24,10.0,South,10.4,-,N/A,,Light Drizzle,180,2013-05-26 19:55:00
3:15 PM,60.8,51.8,72,30.24,10.0,SSE,6.9,-,N/A,,Light Drizzle,160,2013-05-26 20:15:00
3:35 PM,60.8,50.0,68,30.23,10.0,SSE,8.1,-,N/A,Rain,Light Rain,160,2013-05-26 20:35:00
3:55 PM,60.8,50.0,68,30.23,10.0,SSE,6.9,-,N/A,,Light Drizzle,150,2013-05-26 20:55:00
4:15 PM,59.0,50.0,72,30.22,10.0,South,6.9,-,N/A,,Light Drizzle,170,2013-05-26 21:15:00
4:35 PM,59.0,51.8,77,30.21,10.0,SSE,6.9,-,N/A,Rain,Light Rain,160,2013-05-26 21:35:00
4:55 PM,59.0,51.8,77,30.21,10.0,SSE,6.9,-,N/A,Rain,Rain,160,2013-05-26 21:55:00
5:15 PM,59.0,51.8,77,30.20,10.0,SE,8.1,-,N/A,,Mostly Cloudy,140,2013-05-26 22:15:00
5:35 PM,60.8,51.8,72,30.19,10.0,SE,10.4,-,N/A,,Scattered Clouds,140,2013-05-26 22:35:00
5:55 PM,60.8,51.8,72,30.19,10.0,SE,10.4,-,N/A,,Scattered Clouds,140,2013-05-26 22:55:00
6:15 PM,60.8,51.8,72,30.18,10.0,SE,8.1,-,N/A,,Mostly Cloudy,130,2013-05-26 23:15:00
6:35 PM,60.8,51.8,72,30.19,10.0,SE,8.1,-,N/A,,Overcast,140,2013-05-26 23:35:00
6:55 PM,60.8,50.0,68,30.18,10.0,SE,9.2,-,N/A,,Overcast,130,2013-05-26 23:55:00
7:15 PM,60.8,50.0,68,30.21,10.0,West,3.5,-,N/A,,Overcast,280,2013-05-27 00:15:00
7:35 PM,60.8,51.8,72,30.21,7.0,Calm,Calm,-,0.02,Rain,Rain,0,2013-05-27 00:35:00
7:55 PM,59.0,53.6,82,30.16,7.0,ESE,11.5,-,0.05,Rain,Rain,110,2013-05-27 00:55:00
8:15 PM,57.2,51.8,82,30.17,10.0,ESE,9.2,-,N/A,Rain,Rain,120,2013-05-27 01:15:00
8:35 PM,57.2,53.6,88,30.18,10.0,East,5.8,-,N/A,,Mostly Cloudy,80,2013-05-27 01:35:00
8:55 PM,57.2,53.6,88,30.18,10.0,East,6.9,-,N/A,,Overcast,90,2013-05-27 01:55:00
9:15 PM,57.2,53.6,88,30.18,10.0,East,6.9,-,N/A,,Overcast,100,2013-05-27 02:15:00
9:35 PM,57.2,53.6,88,30.18,10.0,East,8.1,-,N/A,,Overcast,100,2013-05-27 02:35:00
9:55 PM,57.2,53.6,88,30.16,10.0,East,10.4,-,N/A,,Overcast,100,2013-05-27 02:55:00
10:15 PM,57.2,53.6,88,30.16,10.0,ESE,9.2,-,N/A,Rain,Rain,120,2013-05-27 03:15:00
10:35 PM,57.2,53.6,88,30.16,10.0,ESE,9.2,-,0.02,Rain,Light Rain,110,2013-05-27 03:35:00
10:55 PM,55.4,53.6,94,30.16,7.0,East,8.1,-,0.02,Rain,Rain,100,2013-05-27 03:55:00
11:15 PM,57.2,53.6,88,30.17,10.0,ESE,5.8,-,N/A,Rain,Rain,120,2013-05-27 04:15:00
11:35 PM,55.4,53.6,94,30.16,10.0,East,8.1,-,0.01,Rain,Rain,100,2013-05-27 04:35:00
11:55 PM,55.4,53.6,94,30.14,7.0,East,11.5,-,0.01,Rain,Light Rain,100,2013-05-27 04:55:00